GW3137 Weather Reports


time (UTC)temp
C
wind
direction
speed
KPH
gust
KPH
rain 1hr
cm
rain 24hr
cm
rain mn
cm
humidity
%
barometer
mb
20260508043704 14 46 1.6 3.2 0.00 0.00 0.00 69 1016.7
20260508040704 15 46 0.0 0.0 0.00 0.00 0.00 67 1016.8
20260508040204 15 46 0.0 3.2 0.00 0.00 0.00 67 1016.7
20260508033703 16 17 0.0 0.0 0.00 0.00 0.00 63 1016.5
20260508033204 16 0 0.0 3.2 0.00 0.00 0.00 62 1016.6
20260508030704 17 30 0.0 3.2 0.00 0.00 0.00 59 1016.6
20260508030204 17 30 0.0 4.8 0.00 0.00 0.00 58 1016.5
20260508023704 18 351 1.6 3.2 0.00 0.00 0.00 55 1016.8
20260508023204 18 299 3.2 4.8 0.00 0.00 0.00 56 1016.7
20260508020704 18 316 0.0 3.2 0.00 0.00 0.00 54 1016.9
20260508020203 18 300 1.6 4.8 0.00 0.00 0.00 55 1017.0
20260508013704 19 351 1.6 8.0 0.00 0.00 0.00 54 1017.0
20260508010704 19 346 3.2 4.8 0.00 0.00 0.00 52 1017.3
20260508010203 19 17 3.2 12.9 0.00 0.00 0.00 53 1017.4
20260508003704 20 330 4.8 12.9 0.00 0.00 0.00 53 1017.4
20260508003205 19 259 3.2 12.9 0.00 0.00 0.00 53 1017.5
20260508000705 20 41 3.2 9.7 0.00 0.00 0.00 51 1017.5
20260508000205 20 77 3.2 8.0 0.00 0.00 0.00 52 1017.5
20260507233204 21 355 3.2 12.9 0.00 0.00 0.00 50 1017.7
20260507230704 20 298 3.2 11.3 0.00 0.00 0.00 51 1017.8
20260507223704 18 281 3.2 12.9 0.00 0.00 0.00 54 1018.3
20260507223205 19 276 8.0 14.5 0.00 0.00 0.00 53 1018.3
20260507220704 19 221 3.2 8.0 0.00 0.00 0.00 55 1018.4
20260507220203 18 273 3.2 12.9 0.00 0.00 0.00 54 1018.5
20260507213704 18 125 3.2 4.8 0.00 0.00 0.00 55 1018.7
20260507213204 18 336 6.4 14.5 0.00 0.00 0.00 55 1018.9
20260507210704 16 287 6.4 11.3 0.00 0.00 0.00 61 1019.2
20260507210206 17 280 8.0 16.1 0.00 0.00 0.00 60 1019.2
20260507203704 17 264 8.0 16.1 0.00 0.00 0.00 61 1019.4
20260507203203 16 283 4.8 14.5 0.00 0.00 0.00 61 1019.5
20260507200203 18 148 1.6 4.8 0.00 0.00 0.00 60 1019.7
20260507193704 16 271 4.8 9.7 0.00 0.00 0.00 64 1020.0
20260507193203 15 298 3.2 11.3 0.00 0.00 0.00 64 1020.0
20260507190704 15 315 1.6 11.3 0.00 0.00 0.00 66 1020.1
20260507190204 15 283 1.6 4.8 0.00 0.00 0.00 67 1020.1
20260507183704 15 97 1.6 4.8 0.00 0.00 0.00 67 1020.4
20260507183204 15 140 3.2 11.3 0.00 0.00 0.00 68 1020.4
20260507180704 15 170 1.6 4.8 0.00 0.00 0.00 67 1020.5
20260507180205 14 261 3.2 11.3 0.00 0.00 0.00 68 1020.4
20260507173704 13 292 3.2 8.0 0.00 0.00 0.00 71 1020.7
20260507173205 13 176 1.6 9.7 0.00 0.00 0.00 72 1020.6
20260507163205 12 290 1.6 4.8 0.00 0.00 0.00 78 1020.7
20260507160705 11 291 4.8 9.7 0.00 0.00 0.00 79 1020.8
20260507160205 11 293 4.8 9.7 0.00 0.00 0.00 79 1020.8
20260507153705 12 253 3.2 4.8 0.00 0.00 0.00 79 1020.9
20260507153205 11 298 1.6 11.3 0.00 0.00 0.00 80 1020.9
20260507150703 12 263 1.6 4.8 0.00 0.00 0.00 79 1020.8
20260507150205 12 232 3.2 8.0 0.00 0.00 0.00 79 1020.9
20260507143703 11 250 1.6 4.8 0.00 0.00 0.00 79 1020.8
20260507143203 11 169 3.2 9.7 0.00 0.00 0.00 80 1020.8
20260507140704 11 184 1.6 8.0 0.00 0.00 0.00 81 1020.8
20260507140204 11 171 1.6 8.0 0.00 0.00 0.00 81 1020.8
20260507133704 10 117 0.0 3.2 0.00 0.00 0.00 82 1020.6
20260507133204 10 124 1.6 8.0 0.00 0.00 0.00 82 1020.6
20260507130704 11 196 3.2 4.8 0.00 0.00 0.00 81 1020.5
20260507130204 11 169 1.6 8.0 0.00 0.00 0.00 81 1020.5
20260507123703 11 173 3.2 4.8 0.00 0.00 0.00 80 1020.6
20260507123204 11 178 4.8 12.9 0.00 0.00 0.00 80 1020.6
20260507120704 11 157 4.8 9.7 0.00 0.00 0.00 81 1020.7
20260507120204 11 152 3.2 9.7 0.00 0.00 0.00 81 1020.7
20260507113703 11 162 3.2 8.0 0.00 0.00 0.00 81 1020.9
20260507110704 11 131 1.6 3.2 0.00 0.00 0.00 83 1021.1
20260507110204 11 126 1.6 4.8 0.00 0.00 0.00 84 1021.1
20260507103704 11 126 1.6 4.8 0.00 0.00 0.00 84 1021.1
20260507103204 11 156 1.6 4.8 0.00 0.00 0.00 84 1021.2
20260507100204 11 169 3.2 8.0 0.00 0.00 0.00 85 1021.3
20260507093204 11 153 3.2 9.7 0.00 0.00 0.00 86 1021.2
20260507090204 11 231 0.0 8.0 0.00 0.00 0.00 84 1021.1
20260507083703 12 121 0.0 4.8 0.00 0.00 0.00 84 1021.0
20260507083203 12 147 1.6 8.0 0.00 0.00 0.00 84 1021.0
20260507080704 11 216 1.6 4.8 0.00 0.00 0.00 85 1021.1
20260507080204 11 173 0.0 11.3 0.00 0.00 0.00 85 1021.1
20260507073703 11 253 1.6 4.8 0.00 0.00 0.00 87 1021.1
20260507073203 11 170 1.6 9.7 0.00 0.00 0.00 87 1021.1
20260507070704 11 173 3.2 16.1 0.00 0.00 0.00 88 1021.0
20260507070204 11 181 3.2 9.7 0.00 0.00 0.00 88 1021.0
20260507063705 12 262 1.6 4.8 0.00 0.00 0.00 87 1021.0
20260507063203 12 187 1.6 11.3 0.00 0.00 0.00 87 1021.0
20260507060704 12 171 3.2 8.0 0.00 0.00 0.00 87 1021.1
20260507053704 12 175 1.6 11.3 0.00 0.00 0.00 86 1021.1
20260507053205 12 237 3.2 14.5 0.00 0.00 0.00 85 1021.1
20260507050204 12 254 4.8 9.7 0.00 0.00 0.00 81 1021.0